Погода в Трех Рутки

Россия / Республика Марий Эл     56°31′25″N   46°37′43″E
темп.,
°C
ветер,
м/с
пор.,
м/с
влажн.,
%
обл.,
%
осадки,
мм/ч
давл.,
гПа
погр.,
м
20 января, чт
чт2000:00−21ююз23100100 0.0 101645
03:00−19ю2710096 0.1 1015120
06:00−14ю41294100 0.0 1014297
09:00−11ююз41486100 0.0 1013441
12:00−8ююз51485100 0.0 1013492
15:00−7ююз51387100 0.0 1012588
18:00−7ююз51387100 0.0 1012561
21:00−7ююз5148675 0.0 1012507
21 января, пт
пт2100:00−9ююз51485100 0.0 1013457
03:00−11ю4138697 0.0 1013365
06:00−12ю41290100 0.0 1014349
09:00−12ю41489100 0.0 1015383
12:00−10ю41385100 0.0 1015444
15:00−9ююв41386100 0.0 1014456
18:00−11юв41290100 0.0 1015324
21:00−11юв5148799 0.0 1014403
22 января, сб
сб2200:00−10юв51591100 0.0 1014492
03:00−10юв61691100 0.0 1013620
06:00−9юв51394100 1.0 1014601
09:00−9юв41093100 1.1 1017414
12:00−8юв489398 0.1 1019384
15:00−8юв389465 0.1 1020272
18:00−11юв399648 0.0 1022164
21:00−14вюв269983 0.0 102482
23 января, вс
вс2300:00−15вюв25100100 0.0 102570
03:00−11в3898100 0.1 1025147
06:00−7в41195100 0.6 1025418
09:00−5юв41295100 1.8 1026655
12:00−4юв51194100 1.1 1027654
15:00−5юв41093100 1.5 1029530
18:00−6юв4994100 0.4 1032414
21:00−7юв3893100 0.6 1033275
24 января, пн
пн2400:00−8вюв3792100 0.0 1034198
03:00−10вюв3892100 0.0 1035158
06:00−11вюв3792100 0.0 1036135
09:00−11вюв2890100 0.0 1036180
12:00−8юв3986100 0.0 1036288
15:00−8юв3987100 0.0 1034281
18:00−10юв3990100 0.0 1034212
21:00−12юв3991100 0.0 1033187